291  
ASUS42 KTBW 180117  
RWRFL  
FLORIDA REGIONAL WEATHER ROUNDUP  
NATIONAL WEATHER SERVICE TAMPA BAY RUSKIN FL  
900 PM EDT FRI AUG 17 2018  
 
NOTE: "FAIR" INDICATES FEW OR NO CLOUDS BELOW 12,000 FEET WITH NO  
SIGNIFICANT WEATHER AND/OR S TO VISIBILITY
.  
 
FLZ001>010-012>015-112-114-115-180200-  
PANHANDLE FLORIDA  
 
CITY SKY/WX TMP DP RH WIND PRES REMARKS
 
PENSACOLA FAIR 81 71 71 S8 30.12R  
PENSACOLA NAS MOCLDY 81 73 76 S8 30.11S  
MILTON NAS MOCLDY 79 76 90 S7 30.12  
CRESTVIEW FAIR 80 74 81 S5 30.14R  
DUKE FIELD MOCLDY 80 74 82 S6 30.13R  
VALPARAISO MOCLDY 82 73 75 SW6 30.12R  
MARY ESTHER CLOUDY 82 72 72 SW5 30.11R  
PANAMA CITY LGT RAIN 80 74 81 SE3 30.12S  
TYNDALL AFB FAIR 78 76 92 CALM 30.13R  
APALACHICOLA FAIR 85 79 82 S7 30.12S HX 98  
 
STATION/POSITION SKY/WX TEMP WIND PRES WAVE SWELL
 
AIR SEA DIR/SP/G HT/PER HT/PER  
(F) (DEG/KT/KT) (MB) (FT/S) (FT/S)  
30.1N 87.6W 81 170/ 8/ 10 1019.6F 2/ 4 2/ 4  
29.2N 88.2W 170/ 8/ 10 1019.8S 2/ 6 2/ 6  
28.8N 86.0W 84 85 170/ 10/ 12 1019.6 2/ 5 2/ 5  
PANAMA CITY BEAC 82 85 160/ 7/ 9 1020.5R  
TOWER C 84 190/ 8/ 8 1020.5S  
 

 
FLZ011-016>038-118-127-128-134-139-239-180200-  
NORTH FLORIDA  
 
CITY SKY/WX TMP DP RH WIND PRES REMARKS
 
MARIANNA FAIR 78 76 93 S3 30.13R  
TALLAHASSEE MOCLDY 81 78 91 CALM 30.15R  
PERRY FAIR 82 77 84 CALM 30.15R  
LIVE OAK MOCLDY 77 75 94 CALM 30.15R  
CROSS CITY FAIR 78 76 94 CALM 30.15R  
LAKE CITY FAIR 72 72 100 CALM 30.16R  
GAINESVILLE FAIR 77 72 84 NE3 30.19R  
WILLISTON N/A N/A N/A N/A MISG N/A  
PALATKA MOCLDY 77 77 100 CALM 30.16R  
MAYPORT NAS FAIR 81 75 82 S3 30.15R  
JACKSONVILLE MOCLDY 77 76 96 CALM 30.16R  
JAX NAS MOCLDY 79 77 94 CALM 30.17R  
JAX CECIL CLEAR 77 75 94 CALM 30.16R  
FERNANDINA BEA FAIR 80 72 76 NW3 30.15R  
ST AUGUSTINE FAIR 80 74 81 S6 30.16R  
PALM COAST FAIR 80 72 78 S3 30.15R  
 
STATION/POSITION SKY/WX TEMP WIND PRES WAVE SWELL
 
AIR SEA DIR/SP/G HT/PER HT/PER  
(F) (DEG/KT/KT) (MB) (FT/S) (FT/S)  
SHELL POINT NOT AVBL  
KEATON BEACH 85 240/ 6/ 7 1020.7R  
CEDAR KEY 85 310/ 4/ 5 1020.5F  
FERNANDINA 81 86 280/ 4/ 5 1022.3R  
30.7N 81.3W 82 N/A 3/ 8  
MAYPORT 81 84 130/ 1/ 3 1021.4R  
31.4N 80.9W 83 83 180/ 14/ 17 1021.0R 3/ 8 2/ 8  
ST AUGUSTINE 80 80 160/ 7/ 8 1021.3R  
 

 
FLZ040-043>046-052-053-057-058-063-144-180200-  
INTERIOR CENTRAL FLORIDA  
 
CITY SKY/WX TMP DP RH WIND PRES REMARKS
 
OCALA FAIR 79 74 84 VRB3 30.16R  
LEESBURG MOCLDY 83 77 82 CALM 30.15R  
SANFORD FAIR 82 73 74 SE9 30.14S  
ORLANDO EXEC FAIR 83 74 74 E8 30.14S  
ORLANDO INTL FAIR 83 73 72 E9 30.14S  
KISSIMMEE FAIR 84 74 71 E7 30.15S  
WINTER HAVEN FAIR 86 71 60 E9 30.14S  
LAKELAND CLEAR 84 73 70 E6 30.13S  
BARTOW N/A N/A N/A N/A MISG N/A  
SEBRING FAIR 85 72 65 SE6 30.14R  
OKEECHOBEE FAIR 79 72 78 CALM 30.14R  
 

 
FLZ041-047-054-059-064-141-147-180200-  
EAST CENTRAL FLORIDA  
 
CITY SKY/WX TMP DP RH WIND PRES REMARKS
 
DAYTONA BEACH FAIR 81 75 82 VRB3 30.15S  
DELAND FAIR 82 73 74 SE7 30.14S  
NEW SMYRNA BEA CLEAR 81 73 78 SE8 30.16S  
JFK SPACE CTR FAIR 80 74 81 SE5 30.15S  
TITUSVILLE CLEAR 84 73 70 VRB6 30.16S  
CAPE CANAVERAL FAIR 78 75 88 SE5 30.14S  
PATRICK AFB FAIR 82 78 89 SE7 30.14F  
MELBOURNE FAIR 85 72 65 E10 30.14S  
VERO BEACH FAIR 82 75 79 E7 30.15S  
FT PIERCE FAIR 81 76 84 E6 30.15R  
STUART PTCLDY 84 75 74 E7 30.16R  
 
STATION/POSITION SKY/WX TEMP WIND PRES WAVE SWELL
 
AIR SEA DIR/SP/G HT/PER HT/PER  
(F) (DEG/KT/KT) (MB) (FT/S) (FT/S)  
28.5N 80.2W 84 120/ 8/ 10 1021.1F 2/ 8 2/ 8  
28.9N 78.5W 84 140/ 6/ 8 1022.2R 3/ 8 3/ 8  
TRIDENT PIER 80 83 100/ 3/ 5 1022.6S  
28.4N 80.5W 81 N/A 2/ 8  
27.5N 80.2W 83 N/A 2/ 4  
 

 
FLZ050-056-061-142-242-148-248-149-249-151-251-155-255-  
160-260-180200-  
WEST CENTRAL FLORIDA  
 
CITY SKY/WX TMP DP RH WIND PRES REMARKS
 
CRYSTAL RIVER N/A 77 73 88 CALM 30.14R  
INVERNESS FAIR 79 79 100 CALM 30.15R  
BROOKSVILLE FAIR 82 77 84 CALM 30.14S  
CLEARWATER AIR MOCLDY 82 73 74 CALM 30.14S  
ST PETE CLEARW LGT RAIN 84 78 82 W3 30.14R HX 95  
TAMPA INTL MOCLDY 83 76 79 SW3 30.14S  
TAMPA EXEC FAIR 82 77 83 NW3 30.14S  
PLANT CITY FAIR 86 75 70 NW3 30.15S HX 95  
MACDILL AFB FAIR 81 75 83 W3 30.14R  
PETER O KNIGHT CLOUDY 82 73 74 W3 30.14R  
ST PETERSBURG CLOUDY 82 73 74 VRB3 30.12R  
SARASOTA FAIR 83 74 74 CALM 30.11S  
VENICE FAIR 82 75 78 CALM 30.14R  
 
STATION/POSITION SKY/WX TEMP WIND PRES WAVE SWELL
 
AIR SEA DIR/SP/G HT/PER HT/PER  
(F) (DEG/KT/KT) (MB) (FT/S) (FT/S)  
27.3N 84.2W 86 N/A 2/ 4  
CLEARWATER BEACH 85 88 270/ 5/ 7 1020.7R  
MIDDLE TAMPA BAY 83 CALM / 3 1020.4F  
VENICE 85 88 270/ 3/ 4 N/A  
 

 
FLZ066-069-070-075>078-162-262-165-265-180200-  
SOUTHWEST FLORIDA AND KEYS  
 
CITY SKY/WX TMP DP RH WIND PRES REMARKS
 
PUNTA GORDA LGT RAIN 86 71 60 SW7 30.14S  
FT MYERS FAIR 80 74 81 S3 30.13R  
SOUTHWEST INTL FAIR 78 74 87 CALM 30.14R  
NAPLES CLEAR N/A N/A N/A CALM 30.14R  
IMMOKALEE N/A 77 75 94 CALM 30.15R  
MARATHON FAIR 85 75 72 E9 30.11R  
KEY WEST NAS FAIR 84 74 71 E12 30.11R  
KEY WEST INTL PTCLDY 84 73 70 E12 30.11R  
 
STATION/POSITION SKY/WX TEMP WIND PRES WAVE SWELL
 
AIR SEA DIR/SP/G HT/PER HT/PER  
(F) (DEG/KT/KT) (MB) (FT/S) (FT/S)  
NAPLES 82 87 1020.4R  
26.0N 85.6W 85 86 120/ 8/ 10 1019.8R 2/ 5 2/ 5  
DRY TORTUGAS 85 90/ 10/ 11 1019.6R  
SAND KEY 84 1019.5R  
SOMBRERO KEY 85 60/ 14/ 16 1018.9R  
LONG KEY 85 88 100/ 11/ 12 1019.3R  
MOLASSES REEF 85 86 70/ 12/ 14 1019.9R  
 

 
FLZ067-068-071>074-168-172>174-180200-  
SOUTHEAST FLORIDA  
 
CITY SKY/WX TMP DP RH WIND PRES REMARKS
 
W PALM BEACH FAIR 84 74 71 E9 30.15R  
BOCA RATON PTCLDY 84 75 74 SE5 30.14R  
FT LAUDER-EXEC FAIR 85 78 80 E8 30.14R HX 96  
FT LAUDERDALE MOCLDY 84 79 85 E12 30.13R HX 96  
PEMBROKE PINES FAIR 85 76 74 E10 30.15R  
OPA LOCKA FAIR 84 76 76 E9 30.14R  
MIAMI FAIR 84 75 74 E9 30.13R  
WEST KENDALL FAIR 83 75 77 E9 30.13R  
HOMESTEAD FAIR 83 75 75 E5 30.12R  
 
STATION/POSITION SKY/WX TEMP WIND PRES WAVE SWELL
 
AIR SEA DIR/SP/G HT/PER HT/PER  
(F) (DEG/KT/KT) (MB) (FT/S) (FT/S)  
PORT EVERGLADES 85 90/ 8/ 11 1020.4R  
VIRGINIA KEY 85 89 70/ 8/ 11 1019.9R  
LAKE WORTH 84 86 100/ 8/ 9 1021.7R  
FOWEY ROCKS 83 87 70/ 8/ 10 1020.9R  
SETTLEMENT POINT 84 160/ 3/ 3 1021.5R  
 

 
 
 
 
CLICK HERE TO GO TO PREVIOUS BULLETINS.

The Nexlab FL Page Main Text Page